Preview of NWS' New Version of Forecast
This preview is not operational and should not be used for support decisions.
Latest weather observations around

Ottawa Municipal Airport (KOWI)

Using International System of Units (Switch to English Units)
Date/ Time (CDT) Wind (kph) Vis. (km) Weather Sky Cond. Temp (°C) Rel. Humidity Wind Chill (°C) Heat Index (°C) Pressure Precip. (cm)
Air Dwpt 6 hour Altimeter (hPa) Sea level (hPa) 1 hr 3 hr 6 hr
Max Min
Aug 25 12:55 W 7 16.09 Clear   22 21     94%   23 1011.51        
Aug 25 12:35 SW 7 14.48 Clear   21 21     100%     1011.85        
Aug 25 12:15 Calm 14.48 Clear   21 21     100%     1011.85        
Aug 25 11:55 SW 6 16.09 Clear   21 21     100%     1012.19        
Aug 25 11:35 SSW 9 16.09 Clear   21 21     100%     1011.85        
Aug 25 11:15 S 7 16.09 Clear   21 21     100%     1011.51        
Aug 25 10:55 S 9 14.48 Clear   21 21     100%     1011.51        
Aug 25 10:35 SSW 6 9.66 Clear   21 21     100%     1011.51        
Aug 25 10:15 S 7 12.88 Clear   20 20     100%     1011.51        
Aug 25 09:55 SE 13 14.48 Clear   20 20     100%     1011.85        
Aug 25 09:35 SE 13 16.09 Clear   20 20     100%     1011.51        
Aug 25 09:15 SE 17 16.09 Clear   20 20     100%     1011.85        
Aug 25 08:55 SE 17 12.88 Clear   20 20     100%     1011.51        
Aug 25 08:35 SSE 20 12.88 Clear   20 20     100%     1012.19        
Aug 25 08:15 SSE 13 11.27 Clear   20 20     100%     1011.51        
Aug 25 07:55 SSE 19 8.05 Light Rain BKN006 OVC009 20 20     100%     1011.85   0    
Aug 25 07:35 SE 17 9.66 Clear   20 20     100%     1012.19        
Aug 25 07:15 SE 17 6.44 Clear   20 20     100%     1012.19        
Aug 25 06:55 ESE 17 4.83 Clear   20 20     100%     1011.85        
Aug 25 06:35 ESE 13 2.82 Clear   20 20     100%     1011.85        
Aug 25 06:15 SSE 13 4.83 Clear   20 20     100%     1011.85        
Aug 25 05:55 SE 19 9.66 Clear   20 20     100%     1011.51        
Aug 25 05:35 SE 19 12.88 Clear   20 20     100%     1012.19        
Aug 25 05:15 SE 20 12.88 Clear   20 20     100%     1011.85        
Aug 25 04:55 SE 22 11.27   SCT006 BKN009 OVC037 19 19     100%     1012.19   0    
Aug 25 04:35 ESE 26 4.83 Clear   20 19     94%     1011.85        
Aug 25 04:15 ESE 13 16.09 Clear   20 19     94%     1013.21        
Aug 25 03:55 SE 13 16.09 Clear   20 19     94%     1013.55        
Aug 25 03:35 ESE 15 16.09 Clear   20 19     94%     1013.21        
Aug 25 03:15 ESE 13 16.09 Clear   20 19     94%     1013.88        
Aug 25 02:55 ESE 13 12.88 Clear   20 19     94%     1014.22        
Aug 25 02:35 SE 17 16.09 Clear   20 19     94%     1013.88        
Aug 25 02:15 SE 13 16.09 Clear   20 19     94%     1014.22        
Aug 25 01:55 ESE 13 16.09 Clear   20 19     94%     1014.22        
Aug 25 01:35 ESE 11 16.09 Clear   20 19     94%     1014.9        
Aug 25 01:15 ESE 13 16.09 Clear   20 19     94%     1014.9        
Aug 25 00:55 ESE 15 16.09 Clear   20 19     94%     1015.24        
Aug 25 00:35 ESE 15 16.09 Clear   20 19     94%     1015.58        
Aug 25 00:15 ESE 17 16.09 Clear   20 19     94%     1015.92        
Aug 24 23:55 ESE 17 16.09 Clear   20 19     94%     1015.92        
Aug 24 23:35 ESE 19 16.09 Clear   20 19     94%     1016.59        
Aug 24 23:15 ESE 11 16.09 Clear   20 19     94%     1016.59        
Aug 24 22:55 ESE 11 16.09 Clear   20 19     94%     1016.59        
Aug 24 22:35 ESE 11 16.09 Clear   20 19     94%     1016.59        
Aug 24 22:15 ESE 11 16.09 Clear   20 18     88%     1016.59        
Aug 24 21:55 ESE 11 16.09 Clear   20 18     88%     1016.59        
Aug 24 21:35 E 9 16.09 Clear   20 18     88%     1016.59        
Aug 24 21:15 ENE 11 16.09 Clear   20 18     88%     1016.59        
Aug 24 20:55 E 11 16.09 Clear   21 18     83%     1016.59        
Aug 24 20:35 E 13 16.09 Clear   21 18     83%     1016.59        
Aug 24 20:15 E 11 16.09 Clear   21 18     83%     1016.59        
Aug 24 19:55 E 17 16.09 Clear   21 18     83%     1016.26        
Aug 24 19:35 E 17 16.09 Cloudy OVC020 21 18     83%     1016.26        
Aug 24 19:15 E 19 16.09 Clear   21 19     88%     1016.26        
Aug 24 18:55 E 20 16.09 Clear   22 19     83%   22 1016.26        
Aug 24 18:35 E 20 16.09 Clear   22 19     83%   22 1016.59        
Aug 24 18:15 E 17 16.09 Clear   22 20     88%   23 1016.59        
Aug 24 17:55 E 17 16.09 Clear   22 20     88%   23 1016.59        
Aug 24 17:35 E 11 16.09 Clear   22 20     88%   23 1016.26        
Aug 24 17:15 E 17 16.09 Clear   23 19     78%   23 1016.26        
Aug 24 16:55 ESE 17 16.09 Cloudy OVC022 23 20     83%   24 1016.26        
Aug 24 16:35 ESE 19 16.09 Cloudy OVC023 23 19     78%   23 1016.26        
Aug 24 16:15 E 15 16.09 Cloudy OVC023 23 19     78%   23 1016.26        
Aug 24 15:55 ESE 24 16.09 Clear   24 19     74%   24 1016.26        
Aug 24 15:35 ESE 19 16.09 Cloudy FEW023 OVC034 24 19     74%   24 1016.26        
Aug 24 15:15 ESE 22 16.09 Clear   24 19     74%   24 1016.26        
Aug 24 14:55 ESE 20 16.09 Clear   24 19     74%   24 1016.59        
Aug 24 14:35 ESE 24 16.09 Clear   25 19     69%   25 1016.59        
Aug 24 14:15 E 19 16.09 Clear   24 20     78%   25 1016.93        
Aug 24 13:55 SE 19 16.09 Clear   24 20     78%   25 1016.93        
Aug 24 13:35 E 20 16.09 Clear   24 20     78%   25 1016.93        
Aug 24 13:15 ESE 22 16.09 Clear   24 20     78%   25 1016.93        
Aug 24 12:55 ESE 20 16.09 Clear   23 19     78%   23 1017.61        
Aug 24 12:35 ESE 22 16.09 Clear   23 19     78%   23 1017.61        
Aug 24 12:15 SE 26 16.09 Clear   23 19     78%   23 1017.61        
Aug 24 11:55 ESE 28 16.09 Clear   23 19     78%   23 1017.61        
Aug 24 11:35 ESE 30 16.09 Clear   22 18     78%   22 1017.95        
Aug 24 11:15 ESE 24 16.09 Clear   21 18     83%     1017.95        
Aug 24 10:55 ESE 30 16.09 Clear   22 19     83%   22 1017.95        
Aug 24 10:35 ESE 24 16.09 Clear   22 19     83%   22 1018.29        
Aug 24 10:15 ESE 22 16.09 Clear   22 20     88%   23 1017.95        
Aug 24 09:55 ESE 24 14.48 Clear   21 20     94%     1017.95        
Aug 24 09:35 ESE 22 11.27 Clear   21 21     100%     1017.95        
Aug 24 09:15 E 19 6.44 Clear   20 20     100%     1017.95        
Aug 24 08:55 E 13 6.44 Fog/Mist FEW008 BKN017 20 20     100%     1018.29        
Aug 24 08:35 E 19 4.02 Clear   20 20     100%     1018.29        
Aug 24 08:15 E 17 4.02 Fog/Mist BKN007 BKN012 20 20     100%     1018.29        
Aug 24 07:55 E 20 9.66 Clear   20 20     100%     1018.29        
Aug 24 07:35 ENE 17 16.09 Clear   20 20     100%     1018.29        
Aug 24 07:15 ENE 15 14.48 Clear   20 20     100%     1018.29        
Aug 24 06:55 E 15 14.48 Clear   20 20     100%     1017.95        
Aug 24 06:35 E 13 16.09 Clear   20 20     100%     1017.95        
Aug 24 06:15 E 11 16.09 Clear   20 20     100%     1017.95        
Aug 24 05:55 E 13 16.09 Clear   21 20     94%     1017.95        
Aug 24 05:35 E 13 16.09 Clear   21 20     94%     1018.29        
Aug 24 05:15 E 11 16.09 Clear   21 21     100%     1017.95        
Aug 24 04:55 E 17 9.66 Clear   21 21     100%     1017.61        
Aug 24 04:35 E 17 14.48 Clear   21 21     100%     1017.61        
Aug 24 04:15 ESE 13 16.09 Clear   21 21     100%     1017.61        
Aug 24 03:55 E 17 16.09 Clear   22 21     94%   23 1017.61        
Aug 24 03:35 E 13 16.09 Clear   22 20     88%   23 1017.61        
Aug 24 03:15 E 17 16.09 Clear   22 20     88%   23 1017.61        
Aug 24 02:55 E 15 16.09 Clear   22 21     94%   23 1017.61        
Aug 24 02:35 E 13 16.09 Clear   22 21     94%   23 1017.61        
Aug 24 02:15 E 17 16.09 Clear   22 21     94%   23 1017.61        
Aug 24 01:55 ENE 15 16.09 Clear   22 21     94%   23 1017.61        
Aug 24 01:35 ENE 9 16.09 Clear   22 21     94%   23 1018.29        
Aug 24 01:15 ENE 9 16.09 Clear   22 21     94%   23 1018.29        
Aug 24 00:55 NE 7 16.09 Clear   22 21     94%   23 1018.63        
Aug 24 00:35 ENE 9 16.09 Clear   22 21     94%   23 1018.29        
Aug 24 00:15 E 11 16.09 Clear   22 21     94%   23 1017.61        
Aug 23 23:55 E 11 16.09 Clear   22 21     94%   23 1017.27        
Aug 23 23:35 ENE 7 16.09 Clear   21 21     100%     1017.27        
Aug 23 23:15 ENE 6 16.09 Clear   21 21     100%     1017.27        
Aug 23 22:55 E 9 16.09 Clear   22 22     100%   23 1016.93        
Aug 23 22:35 E 9 16.09 Clear   21 21     100%     1017.27        
Aug 23 22:15 E 7 16.09 Clear   22 21     94%   23 1017.27        
Aug 23 21:55 ESE 9 16.09 Clear   22 21     94%   23 1017.27        
Aug 23 21:35 E 7 16.09 Clear   22 21     94%   23 1017.27        
Aug 23 21:15 E 9 16.09 Clear   23 21     89%   24 1017.27        
Aug 23 20:55 E 9 16.09 Clear   23 21     89%   24 1017.27        
Aug 23 20:35 E 11 16.09 Clear   24 21     83%   25 1017.27        
Aug 23 20:15 E 11 16.09 Mostly Clear FEW041 FEW050 24 21     83%   25 1016.59        
Aug 23 19:55 E 15 16.09 Mostly Clear FEW035 FEW041 25 22     83%   26 1016.59        
Aug 23 19:35 E 11 16.09 Clear   25 22     83%   26 1016.26        
Aug 23 19:15 E 17 16.09 Clear   26 21     74%   27 1016.59        
Aug 23 18:55 E 13 16.09 Clear   26 22     79%   28 1016.59        
Aug 23 18:35 E 15 16.09 Clear   27 21     70%   29 1016.59        
Aug 23 18:15 E 20 16.09 Clear   27 22     74%   29 1016.26        
Aug 23 17:55 E 19 16.09 Clear   27 21     70%   29 1015.92        
Aug 23 17:35   16.09 Clear   28 22     70%   31 1015.92        
Aug 23 17:15 E 17 16.09 Clear   27 22     74%   29 1015.92        
Aug 23 16:55   16.09 Clear   28 21     66%   30 1015.92        
Aug 23 16:35   16.09 Clear   27 22     74%   29 1015.92        
Aug 23 16:15   16.09 Clear   28 22     70%   31 1015.92        
Aug 23 15:55 E 20 16.09 Mostly Clear FEW024 FEW031 28 22     70%   31 1016.26        
Aug 23 15:35 E 15 16.09 Clear   27 22     74%   29 1016.26        
Aug 23 15:15 E 22 16.09 Clear   27 22     74%   29 1016.26        
Aug 23 14:55 E 20 16.09 Clear   27 22     74%   29 1016.59        
Aug 23 14:35 E 15 16.09 Clear   26 23     84%   28 1016.93        
Aug 23 14:15 E 22 16.09 Clear   26 22     79%   28 1016.93        
Aug 23 13:55 E 20 16.09 Mostly Cloudy FEW018 BKN029 26 23     84%   28 1016.93        
Aug 23 13:35 E 19 16.09 Clear   25 23     89%   26 1017.27        
Aug 23 13:15 E 9 16.09 Clear   25 23     89%   26 1017.27        
Aug 23 12:55 E 19 14.48 Cloudy BKN016 OVC022 26 22     79%   28 1017.61        
Aug 23 12:35 E 17 16.09 Clear   25 22     83%   26 1017.95        
Aug 23 12:15 E 22 14.48 Clear   25 22     83%   26 1017.95        
Aug 23 11:55 ENE 17 16.09 Cloudy OVC015 24 22     89%   25 1017.95        
Aug 23 11:35 ENE 15 16.09 Clear   25 22     83%   26 1018.29        
Aug 23 11:15 ENE 13 14.48 Clear   25 22     83%   26 1017.95        
Aug 23 10:55 ENE 15 14.48 Clear   25 22     83%   26 1017.95        
Aug 23 10:35 ENE 17 16.09 Clear   25 22     83%   26 1017.95        
Aug 23 10:15 E 15 16.09 Clear   25 22     83%   26 1017.61        
Aug 23 09:55 E 17 16.09 Clear   25 22     83%   26 1017.27        
Aug 23 09:35 E 17 16.09 Clear   24 22     89%   25 1016.93        
Aug 23 09:15 ESE 19 16.09 Clear   24 22     89%   25 1016.93        
Aug 23 08:55 E 15 16.09 Clear   23 22     94%   24 1016.93        
Aug 23 08:35 ESE 17 16.09 Clear   22 22     100%   23 1016.93        
Aug 23 08:15 E 17 14.48 Clear   22 22     100%   23 1016.59        
Aug 23 07:55 E 13 14.48 Clear   22 22     100%   23 1016.59        
Aug 23 07:35 E 7 14.48 Clear   22 22     100%   23 1016.59        
Aug 23 07:15 E 9 16.09 Clear   22 21     94%   23 1016.59        
Aug 23 06:55 E 13 16.09 Mostly Clear FEW095 22 21     94%   23 1016.26        
Aug 23 06:35 ESE 9 16.09 Clear   22 21     94%   23 1016.26        
Aug 23 06:15 E 9 16.09 Clear   22 22     100%   23 1016.26        
Aug 23 05:55 ENE 9 16.09 Clear   22 22     100%   23 1015.92        
Aug 23 05:35 NE 11 16.09 Clear   22 22     100%   23 1015.92        
Aug 23 05:15 NE 9 16.09 Partly Cloudy SCT055 22 22     100%   23 1015.92        
Aug 23 04:55 ENE 11 16.09 Clear   22 22     100%   23 1015.24        
Aug 23 04:35 E 11 16.09 Clear   22 22     100%   23 1015.24        
Aug 23 04:15 NE 7 16.09 Cloudy BKN050 OVC055 22 22     100%   23 1015.24        
Aug 23 03:55 E 13 16.09 Clear   22 22     100%   23 1014.9        
Aug 23 03:35 E 11 16.09 Clear   22 22     100%   23 1014.9        
Aug 23 03:15 E 7 16.09 Clear   23 23     100%   24 1014.9        
Aug 23 02:55 E 9 16.09 Clear   23 23     100%   24 1014.9        
Aug 23 02:35 E 13 16.09 Clear   23 23     100%   24 1014.9        
Aug 23 02:15 E 13 16.09 Clear   23 23     100%   24 1015.24        
Aug 23 01:55 E 13 16.09 Clear   23 23     100%   24 1015.58        
Aug 23 01:35 E 11 16.09 Clear   23 23     100%   24 1015.92        
Aug 23 01:15 E 11 16.09 Clear   23 23     100%   24 1015.92        
Aug 23 00:55 ENE 9 16.09 Cloudy OVC049 23 23     100%   24 1016.26        
Aug 23 00:35 E 9 16.09 Clear   23 23     100%   24 1015.58        
Aug 23 00:10 ENE 9 16.09 Clear   23 23     100%   24 1015.58        
Aug 22 23:55 ENE 7 16.09 Cloudy SCT028 BKN036 OVC046 23 23     100%   24 1015.58        
Aug 22 23:35 Calm 16.09 Clear   23 23     100%   24 1015.58        
Aug 22 23:15 ENE 6 16.09 Clear   23 23     100%   24 1015.24        
Aug 22 22:55 ENE 7 16.09 Clear   24 24     100%   25 1015.24        
Aug 22 22:35 NE 6 16.09 Clear   24 23     94%   25 1015.24        
Aug 22 22:15 E 11 16.09 Clear   24 23     94%   25 1014.9        
Aug 22 21:55 ESE 7 16.09 Clear   23 23     100%   24 1014.9        
Aug 22 21:35 E 9 16.09 Clear   24 23     94%   25 1014.9        
Aug 22 21:15 ESE 9 16.09 Clear   24 23     94%   25 1015.24        
Aug 22 20:55 E 7 16.09 Clear   24 24     100%   25 1014.56        
Aug 22 20:35 ENE 7 16.09 Clear   24 24     100%   25 1014.22        
Aug 22 20:15 Calm 16.09 Clear   25 24     94%   26 1014.22        
Aug 22 19:55 Calm 16.09 Clear   25 24     94%   26 1014.22        
Aug 22 19:35 E 7 16.09 Clear   25 24     94%   26 1013.88        
Aug 22 19:15 ENE 9 16.09 Clear   25 24     94%   26 1013.55        
Aug 22 18:55 E 11 16.09 Clear   26 23     84%   28 1013.55        
Aug 22 18:35 E 9 14.48 Clear   26 23     84%   28 1013.55        
Aug 22 18:15 E 7 16.09 Clear   25 23     89%   26 1013.55        
Aug 22 17:55 E 7 16.09 Clear   26 23     84%   28 1013.88        
Aug 22 17:35 E 6 16.09 Clear   26 23     84%   28 1014.22        
Aug 22 17:15 ENE 7 16.09 Clear   26 22     79%   28 1014.56        
Aug 22 16:55 E 7 16.09 Mostly Cloudy FEW025 BKN034 BKN042 27 22     74%   29 1014.56        
Aug 22 16:35 E 11 16.09 Cloudy SCT024 BKN035 OVC050 26 23     84%   28 1014.22        
Aug 22 16:15 ENE 11 16.09 Mostly Cloudy FEW025 BKN032 BKN040 27 22     74%   29 1014.22        
Aug 22 15:55 E 9 16.09 Clear   27 23     79%   30 1014.22        
Aug 22 15:35 NNE 7 16.09 Clear   27 22     74%   29 1014.22        
Aug 22 15:15 N 9 16.09 Clear   27 22     74%   29 1014.56        
Aug 22 14:55 NE 9 16.09 Clear   27 22     74%   29 1014.9        
Aug 22 14:35 N 13 16.09 Clear   27 23     79%   30 1014.9        
Aug 22 14:15 N 9 16.09 Clear   27 22     74%   29 1014.9        
Aug 22 13:55 11 16.09 Clear   27 23     79%   30 1014.9        
Aug 22 13:35 NNE 13 16.09 Clear   26 22     79%   28 1015.24        
Aug 22 13:15 9 16.09 Clear   26 22     79%   28 1015.24        
May 14 22:00 E 20 16.09 Clear   22 15     65%   22 1009.82        
May 14 21:20 SW 22 16.09 Clear   22 15     65%   22 1010.16        
May 14 20:40   9.66 Clear   21 17     78%     1010.16        
May 14 17:20 SSW 22 16.09 Clear   22 15     65%   22 1009.82        
May 14 15:40 S 11 16.09 Clear   27 21     70%   29 1010.5        
May 14 14:00 WSW 11 14.48 Clear   30 20     55%   32 1011.85        
May 14 11:20 SSW 20 14.48 Clear   27 20     66%   28 1013.21        
May 14 03:20 S 11 16.09 Clear   21 18     83%     1012.53        
May 13 21:20 SSE 17 16.09 Clear   24 19     74%   24 1012.19        
May 13 05:20 S 11 14.48 Clear   19 18     94%     1014.22        
May 12 08:00 S 19 16.09 Clear   22 18     78%   22 1011.18        
May 12 03:00 S 22 16.09 Clear   23 18     73%   23 1010.16        
May 12 00:00 S 20 16.09 Clear   24 18     69%   24 1009.82        
May 11 21:20 S 20 16.09 Clear   24 17     65%   24 1007.79        
May 11 19:40 S 26 14.48 Clear   27 18     58%   28 1006.43